ECISR LEGE-LESU

Flight info

Callsign ECISR
Flight time 0h 28m
Altitude 6500
Route VFR
Aircraft BE58/L-SBGDR/EB1

Departure

Time 2026-04-30 14:06
Airport Girona-Costa Brava Airport (LEGE)

Arrival

Time 2026-04-30 14:35
Airport Pirineus - la Seu d'Urgel Airport (LESU)
Time Latitude Longitude Altitude Speed Heading
2026-04-30 13:46 41.90203 2.76500 469 ft 0 kts 195°
2026-04-30 13:51 41.90203 2.76499 469 ft 0 kts 195°
2026-04-30 13:51 41.90202 2.76499 469 ft 0 kts 195°
2026-04-30 14:02 41.90194 2.76496 469 ft 4 kts 195°
2026-04-30 14:02 41.90167 2.76436 469 ft 10 kts 286°
2026-04-30 14:03 41.90186 2.76335 469 ft 12 kts 260°
2026-04-30 14:03 41.90113 2.76291 469 ft 14 kts 195°
2026-04-30 14:03 41.90000 2.76249 469 ft 16 kts 196°
2026-04-30 14:03 41.89893 2.76208 469 ft 16 kts 196°
2026-04-30 14:04 41.89767 2.76161 469 ft 19 kts 196°
2026-04-30 14:04 41.89642 2.76114 469 ft 18 kts 196°
2026-04-30 14:04 41.89563 2.76037 469 ft 12 kts 244°
2026-04-30 14:04 41.89554 2.76015 469 ft 0 kts 239°
2026-04-30 14:05 41.89548 2.76002 469 ft 6 kts 239°
2026-04-30 14:05 41.89518 2.75903 469 ft 13 kts 286°
2026-04-30 14:05 41.89600 2.75867 469 ft 29 kts 17°
2026-04-30 14:05 41.90056 2.76039 512 ft 91 kts 19°
2026-04-30 14:06 41.90671 2.76268 808 ft 96 kts 20°
2026-04-30 14:06 41.91980 2.76442 1348 ft 107 kts 316°
2026-04-30 14:07 41.92241 2.74540 1926 ft 112 kts 231°
2026-04-30 14:07 41.91528 2.74115 2177 ft 114 kts 199°
2026-04-30 14:07 41.90863 2.73599 2426 ft 111 kts 246°
2026-04-30 14:08 41.91242 2.71769 2944 ft 111 kts 301°
2026-04-30 14:08 41.91649 2.70883 3230 ft 113 kts 307°
2026-04-30 14:08 41.92549 2.69066 3716 ft 118 kts 306°
2026-04-30 14:09 41.92982 2.68117 3920 ft 123 kts 300°
2026-04-30 14:09 41.93405 2.67121 4159 ft 121 kts 310°
2026-04-30 14:09 41.94632 2.65102 3782 ft 149 kts 314°
2026-04-30 14:10 41.95311 2.64086 3594 ft 145 kts 313°
2026-04-30 14:10 41.95984 2.63055 3278 ft 148 kts 314°
2026-04-30 14:10 41.96648 2.62039 3199 ft 136 kts 314°
2026-04-30 14:10 41.97253 2.61093 3232 ft 134 kts 313°
2026-04-30 14:11 41.97870 2.60111 3268 ft 143 kts 313°
2026-04-30 14:11 41.98499 2.59059 3333 ft 142 kts 311°
2026-04-30 14:11 41.99070 2.58109 3690 ft 126 kts 311°
2026-04-30 14:11 41.99661 2.57236 3905 ft 125 kts 319°
2026-04-30 14:12 42.00275 2.56442 4141 ft 123 kts 320°
2026-04-30 14:12 42.00897 2.55652 4366 ft 122 kts 320°
2026-04-30 14:12 42.01521 2.54855 4563 ft 124 kts 319°
2026-04-30 14:12 42.01931 2.54333 4702 ft 123 kts 320°
2026-04-30 14:13 42.02804 2.53220 4773 ft 136 kts 319°
2026-04-30 14:13 42.03511 2.52334 4777 ft 143 kts 320°
2026-04-30 14:13 42.04155 2.51289 4780 ft 146 kts 306°
2026-04-30 14:13 42.04679 2.50090 4706 ft 151 kts 302°
2026-04-30 14:14 42.05147 2.48801 4430 ft 158 kts 286°
2026-04-30 14:14 42.05146 2.47318 4259 ft 156 kts 269°
2026-04-30 14:14 42.05067 2.45914 4248 ft 145 kts 270°
2026-04-30 14:14 42.05052 2.44562 4156 ft 148 kts 274°
2026-04-30 14:15 42.05057 2.43153 4102 ft 154 kts 274°
2026-04-30 14:15 42.05067 2.41693 4077 ft 155 kts 274°
2026-04-30 14:15 42.05077 2.40249 4051 ft 156 kts 277°
2026-04-30 14:15 42.05273 2.38833 4060 ft 151 kts 289°
2026-04-30 14:16 42.05582 2.37434 4089 ft 161 kts 290°
2026-04-30 14:16 42.05920 2.35972 4183 ft 167 kts 291°
2026-04-30 14:16 42.06271 2.34456 4265 ft 172 kts 290°
2026-04-30 14:16 42.06643 2.32873 3892 ft 180 kts 290°
2026-04-30 14:17 42.07002 2.31316 3671 ft 170 kts 290°
2026-04-30 14:17 42.07349 2.29815 3370 ft 169 kts 290°
2026-04-30 14:17 42.07702 2.28337 3297 ft 161 kts 285°
2026-04-30 14:17 42.08107 2.26916 3451 ft 169 kts 289°
2026-04-30 14:18 42.08575 2.25406 3506 ft 176 kts 290°
2026-04-30 14:18 42.09067 2.23807 3438 ft 187 kts 290°
2026-04-30 14:18 42.10045 2.20676 3369 ft 176 kts 290°
2026-04-30 14:19 42.10979 2.17712 3355 ft 170 kts 290°
2026-04-30 14:19 42.11437 2.16242 3333 ft 170 kts 290°
2026-04-30 14:19 42.11895 2.14812 3432 ft 163 kts 290°
2026-04-30 14:20 42.12312 2.13461 3703 ft 154 kts 288°
2026-04-30 14:20 42.12683 2.12084 3998 ft 154 kts 285°
2026-04-30 14:20 42.13336 2.09399 4582 ft 153 kts 281°
2026-04-30 14:21 42.13647 2.08045 4855 ft 153 kts 287°
2026-04-30 14:21 42.14048 2.06710 5044 ft 156 kts 288°
2026-04-30 14:21 42.14871 2.04070 5566 ft 151 kts 292°
2026-04-30 14:22 42.15383 2.02800 5714 ft 157 kts 296°
2026-04-30 14:22 42.16556 2.00274 6091 ft 157 kts 301°
2026-04-30 14:22 42.17169 1.99043 6253 ft 159 kts 299°
2026-04-30 14:23 42.18345 1.96550 6633 ft 156 kts 299°
2026-04-30 14:23 42.19616 1.94229 7028 ft 151 kts 304°
2026-04-30 14:24 42.20961 1.91980 7276 ft 157 kts 307°
2026-04-30 14:24 42.21730 1.90883 7340 ft 162 kts 312°
2026-04-30 14:25 42.23457 1.88970 7665 ft 157 kts 321°
2026-04-30 14:25 42.25052 1.86887 7749 ft 166 kts 312°
2026-04-30 14:26 42.26624 1.84525 7781 ft 171 kts 306°
2026-04-30 14:26 42.27374 1.83280 7822 ft 170 kts 306°
2026-04-30 14:26 42.28859 1.80748 7866 ft 170 kts 303°
2026-04-30 14:27 42.29534 1.79466 7971 ft 165 kts 301°
2026-04-30 14:27 42.30159 1.78168 8050 ft 164 kts 299°
2026-04-30 14:27 42.30721 1.76804 8022 ft 169 kts 296°
2026-04-30 14:28 42.31957 1.74029 7962 ft 174 kts 297°
2026-04-30 14:28 42.32563 1.72623 7975 ft 173 kts 297°
2026-04-30 14:28 42.33161 1.71199 7953 ft 174 kts 297°
2026-04-30 14:28 42.33754 1.69797 7983 ft 172 kts 297°
2026-04-30 14:29 42.34858 1.66854 7905 ft 176 kts 294°
2026-04-30 14:29 42.35727 1.64361 7855 ft 176 kts 287°
2026-04-30 14:30 42.35560 1.58942 7136 ft 162 kts 262°
2026-04-30 14:31 42.35382 1.56054 6488 ft 151 kts 264°
2026-04-30 14:31 42.35370 1.53078 6252 ft 156 kts 272°
2026-04-30 14:31 42.35483 1.51619 6069 ft 156 kts 275°
2026-04-30 14:32 42.35853 1.48720 5518 ft 148 kts 278°
2026-04-30 14:32 42.36018 1.47506 5167 ft 119 kts 279°
2026-04-30 14:32 42.36124 1.46392 4879 ft 122 kts 272°
2026-04-30 14:33 42.36214 1.45344 4504 ft 101 kts 271°
2026-04-30 14:33 42.36303 1.43557 3593 ft 90 kts 252°
2026-04-30 14:33 42.36043 1.42868 3352 ft 81 kts 229°
2026-04-30 14:34 42.35648 1.42347 3045 ft 80 kts 214°
2026-04-30 14:34 42.35191 1.41952 2820 ft 74 kts 211°
2026-04-30 14:34 42.34757 1.41602 2687 ft 72 kts 214°
2026-04-30 14:34 42.34349 1.41266 2628 ft 57 kts 212°
2026-04-30 14:35 42.33848 1.40852 2628 ft 23 kts 221°
2026-04-30 14:35 42.33769 1.40718 2628 ft 14 kts 238°
2026-04-30 14:35 42.33732 1.40646 2628 ft 2 kts 234°
2026-04-30 14:36 42.33723 1.40632 2628 ft 2 kts 224°
2026-04-30 14:36 42.33688 1.40604 2628 ft 9 kts 204°
2026-04-30 14:36 42.33643 1.40563 2628 ft 8 kts 271°
2026-04-30 14:36 42.33684 1.40523 2628 ft 9 kts 34°
2026-04-30 14:37 42.33738 1.40558 2628 ft 6 kts 337°
2026-04-30 14:37 42.33762 1.40518 2628 ft 3 kts 360°
2026-04-30 14:37 42.33771 1.40525 2628 ft 0 kts 31°